TimePST,TemperatureF,Dew PointF,Humidity,Sea Level PressureIn,VisibilityMPH,Wind Direction,Wind SpeedMPH,Gust SpeedMPH,PrecipitationIn,Events,Conditions,WindDirDegrees,DateUTC
12:55 AM,32.0,28.0,85,30.27,10.0,NNW,3.5,-,N/A,,Clear,330,2011-11-27 08:55:00
1:55 AM,30.9,27.0,85,30.26,10.0,Calm,Calm,-,N/A,,Clear,0,2011-11-27 09:55:00
2:55 AM,32.0,27.0,82,30.23,10.0,Calm,Calm,-,N/A,,Clear,0,2011-11-27 10:55:00
3:55 AM,30.9,27.0,85,30.20,10.0,NNW,3.5,-,N/A,,Clear,330,2011-11-27 11:55:00
5:55 AM,27.0,25.0,92,30.15,10.0,East,5.8,-,N/A,,Clear,80,2011-11-27 13:55:00
7:55 AM,28.9,26.1,89,30.12,10.0,Calm,Calm,-,N/A,,Clear,0,2011-11-27 15:55:00
8:55 AM,28.9,27.0,92,30.10,10.0,Variable,3.5,-,N/A,,Clear,0,2011-11-27 16:55:00
9:55 AM,30.9,28.9,92,30.05,10.0,Calm,Calm,-,N/A,,Clear,0,2011-11-27 17:55:00
10:55 AM,34.0,28.9,82,30.06,10.0,Variable,4.6,-,N/A,,Clear,0,2011-11-27 18:55:00
11:55 AM,36.0,28.9,76,30.01,10.0,SE,3.5,-,N/A,,Partly Cloudy,130,2011-11-27 19:55:00
12:55 PM,37.9,28.9,70,29.97,10.0,Calm,Calm,-,N/A,,Scattered Clouds,0,2011-11-27 20:55:00
1:55 PM,41.0,30.0,65,30.01,10.0,NW,10.4,-,N/A,,Scattered Clouds,310,2011-11-27 21:55:00
2:55 PM,42.1,34.0,73,30.03,10.0,North,-9999.0,-,N/A,,Clear,0,2011-11-27 22:55:00
3:55 PM,41.0,34.0,76,30.07,10.0,WNW,11.5,-,N/A,,Clear,290,2011-11-27 23:55:00
4:55 PM,45.0,36.0,71,30.09,10.0,NW,9.2,-,N/A,,Clear,320,2011-11-28 00:55:00
5:55 PM,46.0,34.0,63,30.09,10.0,WNW,8.1,-,N/A,,Clear,300,2011-11-28 01:55:00
6:55 PM,42.1,34.0,73,30.08,10.0,NNW,10.4,-,N/A,,Clear,340,2011-11-28 02:55:00
7:55 PM,44.1,30.9,60,30.10,10.0,WNW,6.9,-,N/A,,Clear,300,2011-11-28 03:55:00
9:55 PM,39.9,28.9,65,30.21,10.0,Calm,Calm,-,N/A,,Partly Cloudy,0,2011-11-28 05:55:00
10:55 PM,39.0,28.0,65,30.24,10.0,Calm,Calm,-,N/A,,Clear,0,2011-11-28 06:55:00
11:55 PM,39.0,28.0,65,30.28,10.0,Calm,Calm,-,N/A,,Partly Cloudy,0,2011-11-28 07:55:00